CDT,Max TemperatureF,Mean TemperatureF,Min TemperatureF,Max Dew PointF,MeanDew PointF,Min DewpointF,Max Humidity, Mean Humidity, Min Humidity, Max Sea Level PressureIn, Mean Sea Level PressureIn, Min Sea Level PressureIn, Max VisibilityMiles, Mean VisibilityMiles, Min VisibilityMiles, Max Wind SpeedMPH, Mean Wind SpeedMPH, Max Gust SpeedMPH,PrecipitationIn, CloudCover, Events, WindDirDegrees
2013-3-1,26,18,10,12,8,3,74,58,42,30.36,30.30,30.19,10,10,8,14,8,22,T,4,Snow,19
2013-3-2,27,16,5,7,4,2,88,63,37,30.33,30.27,30.20,10,10,10,14,5,20,0.00,0,,356
2013-3-3,30,10,-10,5,-1,-13,87,57,27,30.22,30.16,30.11,10,10,8,9,2,13,0.00,0,,12
2013-3-4,32,17,1,13,8,-3,87,62,36,30.19,30.14,30.09,10,10,8,12,6,,0.00,4,,94
2013-3-5,30,26,21,18,15,8,84,65,46,30.22,30.12,30.02,10,10,7,15,9,21,T,8,,37
2013-3-6,31,20,9,19,16,8,92,71,49,30.36,30.28,30.19,10,9,2,12,5,16,0.02,6,Snow,334
2013-3-7,30,17,3,15,10,-1,92,71,49,30.45,30.41,30.33,10,10,7,6,2,9,T,4,,141
2013-3-8,39,25,11,22,17,7,83,64,44,30.45,30.38,30.26,10,10,10,15,6,18,0.00,1,,167
2013-3-9,35,31,27,32,28,20,96,83,69,30.24,29.94,29.76,10,4,1,16,8,23,0.22,7,Rain-Snow,143
2013-3-10,34,31,27,32,28,24,96,87,78,29.94,29.82,29.73,10,4,0,16,8,25,0.29,8,Fog-Rain-Snow,17
2013-3-11,29,25,20,25,21,15,85,80,74,29.78,29.65,29.57,10,3,0,16,9,24,0.43,8,Fog-Snow,353
2013-3-12,25,22,18,18,14,10,84,76,68,30.04,29.82,29.66,10,5,0,17,9,25,0.05,8,Snow,301
2013-3-13,30,17,4,12,6,2,74,54,34,30.30,30.18,29.97,10,9,2,16,6,25,0.01,3,Snow,309
2013-3-14,35,17,-1,23,12,-5,87,62,36,30.28,30.15,29.97,10,10,10,15,6,18,0.00,3,,226
2013-3-15,32,24,16,27,19,12,85,67,49,29.99,29.93,29.86,10,6,1,15,6,18,0.09,8,Snow,4
2013-3-16,23,16,9,11,7,2,80,66,52,30.17,30.00,29.89,10,7,2,20,7,24,0.05,8,Snow,356
2013-3-17,25,8,-10,7,-1,-11,95,64,32,30.31,30.22,30.08,10,10,2,15,6,18,T,0,,110
2013-3-18,26,20,13,23,17,7,88,81,73,30.06,29.63,29.45,10,4,0,23,9,28,0.26,8,Fog-Snow,159
2013-3-19,27,20,12,11,7,1,84,61,38,29.96,29.64,29.47,10,5,1,29,16,38,0.05,7,Snow,273
2013-3-20,19,11,3,5,0,-5,72,59,45,30.07,30.01,29.96,10,10,10,18,11,26,T,4,,297
2013-3-21,27,16,4,12,7,1,88,69,50,30.05,30.02,29.92,10,9,4,14,5,17,T,4,Snow,302
2013-3-22,31,15,-2,19,11,-4,95,77,58,30.10,30.07,29.99,10,10,10,12,3,16,0.00,6,,331
2013-3-23,31,26,21,19,18,16,81,72,63,30.19,30.14,30.05,10,10,10,10,4,14,0.00,8,,28
2013-3-24,30,25,19,21,18,14,77,70,62,30.13,30.04,29.95,10,10,10,15,7,22,T,7,,29
2013-3-25,34,26,18,21,18,15,92,74,56,30.18,30.04,29.90,10,10,10,16,7,26,T,7,,5
2013-3-26,36,30,24,23,20,16,81,67,52,30.27,30.22,30.13,10,10,9,12,4,15,T,8,,321
2013-3-27,41,33,25,19,16,12,63,50,37,30.32,30.29,30.27,10,10,10,15,6,24,0.00,5,,312
2013-3-28,45,28,10,16,13,6,84,56,28,30.35,30.32,30.29,10,10,10,12,4,15,0.00,0,,280
2013-3-29,48,31,14,24,16,10,80,53,25,30.35,30.28,30.18,10,10,10,13,3,16,0.00,0,,229
2013-3-30,39,36,32,36,31,18,96,72,48,30.16,29.89,29.76,10,3,0,16,7,25,0.54,7,Fog-Rain-Snow,213
2013-3-31,36,29,22,32,26,7,96,69,41,29.94,29.71,29.63,10,5,0,22,11,36,T,7,Fog-Snow,286